SHIYAN 27D

导读

SHIYAN 27D(试验二十七号04星)是中国自主研制的试验卫星,于北京时间2025年4月19日6时51分,在太原卫星发射中心由长征六号改运载火箭发射升空,随01星至06星共六颗卫星一同进入预定轨道,发射任务取得圆满成功。该卫星主要用于开展空间环境探测与相关空间技术试验任务,是中国航天空间探索领域的重要试验载荷。

基本信息
目录编号:
63602
目录名称:
SHIYAN 27D
国际标识:
2025-078D
轨道中心:
EARTH
卫星名称:
SHIYAN 27D
卫星全名:
SHIYAN 27D
卫星状态:
在轨 (已飞行425 天)
发射日期:
2025-04-18 UTC
国别 :
中国 (CN)
星等 :
--
轨道信息
数据来源 国际轨道数据 AOE轨道数据
星历时间 2026-06-17T20:23:21+0800
7小时前
查看轨道信息
2026-06-17T03:00:00+0800
1天前
查看轨道信息
半长轴 7423.844km 7423.842km
偏心率 0.0001132 0.0001171
轨道倾角 99.693° 99.692°
近地点辐角 84.306° 37.810°
升交点赤经 175.753° 175.043°
平近点角 275.820° 23.954°
近地点 1044.866km 1044.835km
远地点 1046.548km 1046.575km
周期 106.097分钟 106.097分钟
每日圈数 13.572491 13.572497
详细信息
使用方式:
暂无
2D轨道图
3D轨道图
轨道高度分析图
轨道倾角分析图
轨道综合分析图
查看轨道综合分析图